Location: Les Chemineaux
(47.3024°N, 1.5104°E)
Time: 11:38:11
(UTC+00:00)

Helios 1B rocket - Pass Details

Date: 19 May 2025
Orbit: 497 x 503 km, 98.2° (Epoch: 12 June)

Event Time Altitude Azimuth Distance (km) Brightness Sun altitude
Exits shadow 20:49:30 - 196° (SSW) 2,519 5.4 -11.4°
Reaches altitude 10° 20:51:44 10° 210° (SSW) 1,697 4.6 -11.7°
Maximum altitude 20:54:41 23° 265° (W) 1,095 4.3 -12.0°
Drops below altitude 10° 20:57:41 10° 319° (NW) 1,711 6.4 -12.3°
Sets 21:00:06 0° 334° (NNW) 2,602 7.4 -12.6°
